www.pogodaiklimat.ru

Погода и климат >> Архив погоды >> Австрия >> Лунц


ПОГОДА в Лунце

  • Прогноз погоды в Лунце
  • Монитор погоды в Лунце

АРХИВ ПОГОДЫ в Лунце

Время (UTC), дата Ветер
(напр.,м/с)
 
Видим.   Явления Облачность Т
(С)
Тd
(С)
f
(%)
Тe
(С)
Тes
(С)
Комфортность P
(гПа)
Po
(гПа)
Тmin
(С)
Tmax
(С)
R
(мм)
R24
(мм)
S
(см)
01 10.06 ЮВ 1 н/о н/о +11.8 +11.4 97 +12 +12 1019.1 947.8
02 10.06 штиль 0 н/о н/о +11.4 +11.0 97 +11 +11 1018.2 946.9
03 10.06 штиль 0 н/о н/о +10.9 +10.5 97 +10 +10 1017.8 946.4
04 10.06 В 1 н/о н/о +10.9 +10.6 98 +10 +10 1017.4 946.0
05 10.06 штиль 0 н/о н/о +11.8 +11.4 97 +11 +11 1016.7 945.6
06 10.06 штиль 0 20 км 3/0 2000 м
[Ac trans]
+15.9 +13.9 88 +16 +21 1015.1 945.1 +10.4 +22.4
07 10.06 штиль 0 н/о н/о +19.3 +15.2 77 +21 +21 комфорт 1014.2 945.1
08 10.06 штиль 0 н/о н/о +23.2 +15.6 62 +27 +27 душно 1012.7 944.6
09 10.06 штиль 0 20 км 5/0
[Ac trans]
+25.4 +14.4 51 +28 +42 жарко 1012.2 944.6
10 10.06 З 1 н/о н/о +27.1 +16.4 52 +31 +31 душно 1011.3 944.2
11 10.06 СЗ 2 н/о н/о +29.0 +15.8 45 +32 +32 душно 1010.4 943.7
12 10.06 СЗ 1 20 км 3/0 2000 м
[Ac trans]
+28.0 +17.9 54 +32 +49 душно 1010.3 943.5
13 10.06 С 1 н/о н/о +27.6 +16.6 51 +31 +31 душно 1010.0 943.1
14 10.06 ЮЗ 1 н/о н/о +25.3 +20.2 73 +31 +31 очень
душно
1009.6 942.3
15 10.06 З 1 н/о н/о +28.3 +18.3 55 +33 +33 очень
душно
1007.8 941.2
16 10.06 ЮЗ 1 н/о н/о +28.9 +15.9 45 +32 +32 душно 1007.2 940.7
17 10.06 Ю 1 н/о н/о +28.1 +13.2 40 +30 +30 жарко 1007.4 940.7
18 10.06 В 1 20 км 5/0 2000 м
[Ac trans Ci]
+26.7 +13.5 44 +29 +29 жарко 1008.5 941.4 +14.4 +29.5
19 10.06 В 1 н/о н/о +25.4 +14.5 51 +28 +28 жарко 1009.0 941.6
20 10.06 В 1 н/о н/о +25.6 +14.0 49 +28 +28 жарко 1008.6 941.3
21 10.06 штиль 0 н/о н/о +22.5 +14.8 62 +26 +26 жарко 1009.7 941.6
22 10.06 штиль 0 н/о н/о +19.2 +15.7 80 +21 +21 комфорт 1010.8 941.9
23 10.06 штиль 0 н/о н/о +18.3 +15.1 82 +19 +19 1010.5 941.4
00 11.06 штиль 0 н/о н/о +16.7 +14.7 88 +17 +17 1010.5 941.1
01 11.06 В 1 н/о н/о +16.6 +14.2 86 +17 +17 1009.8 940.4
02 11.06 штиль 0 н/о н/о +14.5 +13.5 94 +14 +14 1010.3 940.3
03 11.06 Ю 1 н/о н/о +13.7 +12.6 93 +14 +14 1010.7 940.5
04 11.06 штиль 0 н/о н/о +14.9 +13.2 90 +15 +15 1010.7 940.8
05 11.06 штиль 0 20 км 3/0
[Ac trans]
+15.3 +13.8 91 +15 +17 1010.3 940.5
06 11.06 В 1 20 км 4/0
[]
+18.4 +15.1 81 +20 +24 1009.7 940.7 +13.7 +27.1
07 11.06 В 1 н/о н/о +23.6 +17.1 67 +27 +27 жарко 1008.8 941.1 0.0
08 11.06 СЗ 1 н/о н/о +25.0 +17.2 62 +29 +29 душно 1008.7 941.3
09 11.06 З 2 20 км 3/0
[]
+25.8 +18.0 62 +30 +43 душно 1008.4 941.2 0.0
10 11.06 ЮВ 2 н/о н/о +28.5 +10.6 33 +29 +29 жарко 1007.8 941.1
11 11.06 Ю 2 н/о н/о +27.6 +11.3 36 +28 +28 жарко 1007.7 940.8
12 11.06 Ю 2 20 км 4/0
[]
+29.6 +11.4 32 +30 +44 жарко 1006.8 940.4 0.0
13 11.06 Ю 1 н/о н/о +30.0 +11.7 32 +31 +31 жарко 1006.7 940.4
14 11.06 Ю 1 н/о н/о +29.9 +10.9 31 +30 +30 жарко 1006.5 940.1
15 11.06 В 1 20 км 8/0
[As trans]
+27.3 +12.4 40 +29 +34 жарко 1007.8 940.8
16 11.06 Ю 2 н/о н/о +27.5 +6.7 27 +27 +27 жарко 1007.7 940.7 0.0
17 11.06 В 2 н/о н/о +27.2 +4.6 24 +26 +26 жарко 1008.4 941.2
18 11.06 В 3
{13}
20 км 9/0 2000 м
[As trans]
+26.9 +6.7 28 +26 +27 жарко 1008.3 941.1 +17.2 +30.6 0.0
19 11.06 В 3
{13}
н/о н/о +26.1 +6.5 29 +26 +26 жарко 1008.1 940.7
20 11.06 ЮВ 2 н/о н/о +25.9 +5.7 27 +25 +25 комфорт 1009.0 941.5
21 11.06 В 3
{13}
н/о н/о +25.3 +6.9 31 +25 +25 комфорт 1009.1 941.5
22 11.06 В 2 н/о н/о +24.5 +6.6 32 +25 +25 комфорт 1009.0 941.2
23 11.06 штиль 0 н/о н/о +17.7 +10.0 61 +18 +18 1009.3 940.1
00 12.06 штиль 0
{13}
н/о н/о +16.1 +9.9 67 +16 +16 1009.9 940.3
01 12.06 штиль 0 н/о н/о +15.8 +9.3 65 +16 +16 1009.3 939.6
02 12.06 В 1 н/о н/о +22.1 +7.3 38 +23 +23 комфорт 1007.2 939.0
03 12.06 штиль 0 н/о н/о +20.4 +8.5 46 +21 +21 комфорт 1008.6 940.0
04 12.06 штиль 0 н/о н/о +16.8 +9.8 63 +17 +17 1009.5 940.0
05 12.06 В 1 20 км ясно +16.7 +11.0 69 +18 +20 1009.7 940.2
06 12.06 штиль 0
{13}
20 км 3/0 2000 м
[Ac trans]
+18.2 +13.4 74 +18 +24 1009.1 940.1 +14.6 +27.1
07 12.06 штиль 0 н/о н/о +21.6 +14.5 64 +25 +25 комфорт 1008.2 940.0
08 12.06 В 3 н/о н/о +27.3 +10.2 34 +28 +28 жарко 1007.0 940.0
09 12.06 В 3 20 км ясно +28.1 +11.0 34 +29 +41 жарко 1007.0 940.2
10 12.06 В 1 н/о н/о +28.5 +11.6 35 +29 +29 жарко 1006.8 940.1
11 12.06 В 3 н/о н/о +29.2 +10.1 30 +29 +29 жарко 1006.4 939.9
12 12.06 В 2 20 км 5/0 2000 м
[Ac trans]
+29.3 +12.0 34 +30 +42 жарко 1006.2 939.8
13 12.06 ЮВ 2 н/о н/о +30.2 +12.1 33 +31 +31 жарко 1006.0 939.8
14 12.06 В 3 н/о н/о +28.8 +12.0 35 +30 +30 жарко 1006.5 939.9
15 12.06 В 2 20 км 5/0 2000 м
[Ac trans Ci]
+28.3 +13.1 39 +30 +36 жарко 1006.8 940.1 0.0
16 12.06 В 2 н/о н/о +28.6 +13.7 40 +30 +30 жарко 1006.2 939.7
17 12.06 В 2 н/о н/о +27.4 +13.4 42 +29 +29 жарко 1006.9 940.0 0.0
18 12.06 ЮВ 1 29 км 5/0
[]
+26.0 +14.0 48 +28 +29 жарко 1007.4 940.2 +17.9 +30.3 0.0
19 12.06 В 1 н/о н/о +21.9 +16.2 70 +26 +26 душно 1008.9 940.8
20 12.06 штиль 0 н/о н/о +19.1 +16.0 82 +20 +20 1010.3 941.5
21 12.06 СЗ 1 н/о н/о +19.1 +15.3 79 +22 +22 комфорт 1011.2 942.3
22 12.06 штиль 0 н/о н/о +17.9 +14.9 83 +18 +18 1012.0 942.7
23 12.06 штиль 0 н/о н/о +15.8 +14.5 92 +16 +16 1012.5 942.7
00 13.06 штиль 0 н/о н/о +14.7 +14.0 96 +14 +14 1012.8 942.7
01 13.06 штиль 0 н/о н/о +15.2 +14.0 93 +15 +15 1012.6 942.7
02 13.06 С 1 н/о н/о +16.5 +13.3 81 +17 +17 1012.6 942.9
03 13.06 СЗ 1 н/о н/о +16.3 +13.3 82 +17 +17 1012.9 943.2
04 13.06 З 1 н/о н/о +16.1 +14.3 89 +17 +17 1013.3 943.5
05 13.06 штиль 0 15 км 10/0
[As trans]
+16.5 +13.8 84 +16 +17 1013.8 944.1
06 13.06 З 1 15 км 10/0 1500 м
[As trans]
+16.4 +13.8 85 +17 +19 1014.5 944.7 +14.4 +26.0
07 13.06 З 1 н/о н/о +16.6 +13.4 81 +17 +17 1014.5 944.7
08 13.06 З 1 н/о н/о +17.9 +14.1 78 +19 +19 1014.0 944.6
09 13.06 З 1 20 км 9/0
[As trans]
+18.3 +13.8 75 +20 +28 1014.0 944.7
10 13.06 З 1 н/о н/о +19.8 +14.2 70 +23 +23 комфорт 1013.3 944.4
11 13.06 ЮЗ 1 н/о н/о +22.4 +15.3 64 +26 +26 жарко 1011.8 943.6
12 13.06 З 2 20 км 1/0 2000 м
[Ac trans]
+24.4 +16.0 59 +28 +44 душно 1010.7 943.0
13 13.06 З 1 н/о н/о +25.6 +16.3 56 +29 +29 душно 1009.9 942.5
14 13.06 СЗ 1 н/о н/о +26.3 +17.0 57 +30 +30 душно 1009.6 942.4
15 13.06 СЗ 2 н/о н/о +27.4 +17.4 54 +31 +31 душно 1009.0 942.1
16 13.06 З 2 н/о н/о +27.3 +18.5 59 +32 +32 очень
душно
1008.6 941.8
17 13.06 З 2 н/о н/о +26.8 +18.3 60 +32 +32 очень
душно
1008.6 941.6
18 13.06 В 1 н/о н/о +22.9 +19.3 80 +29 +29 очень
душно
1009.7 941.9 +16.2 +27.8
19 13.06 штиль 0 н/о н/о +19.7 +18.2 91 +22 +22 комфорт 1011.4 942.7
20 13.06 В 1 н/о н/о +19.1 +17.7 92 +22 +22 комфорт 1013.2 944.2
21 13.06 штиль 0 н/о н/о +20.3 +17.6 84 +23 +23 комфорт 1014.2 945.4
22 13.06 З 2 н/о н/о +21.4 +14.5 65 +24 +24 комфорт 1014.7 946.0
23 13.06 С 1 н/о н/о +20.0 +15.5 75 +23 +23 комфорт 1015.7 946.7
00 14.06 В 1 н/о н/о +17.2 +15.1 87 +18 +18 1016.7 947.0
01 14.06 В 1 н/о н/о +15.2 +14.5 96 +16 +16 1017.3 947.0
02 14.06 штиль 0 н/о н/о +14.0 +13.4 96 +14 +14 1018.0 947.4
03 14.06 В 1 н/о н/о +13.3 +12.9 97 +13 +13 1019.0 948.1
04 14.06 В 1 н/о н/о +12.8 +12.4 97 +13 +13 1019.7 948.7
05 14.06 ЮВ 1 20 км 1/0
[Ac trans]
+14.5 +13.9 96 +15 +17 1019.6 949.0
06 14.06 штиль 0 20 км ясно +16.9 +14.7 87 +17 +23 1019.3 949.3 +12.7 +23.9
07 14.06 В 1 н/о н/о +21.2 +15.2 69 +24 +24 комфорт 1018.2 949.3
08 14.06 ЮВ 1 н/о н/о +24.0 +16.1 61 +27 +27 жарко 1017.2 949.0 0.0
09 14.06 З 1 н/о н/о +26.1 +15.5 52 +29 +29 жарко 1016.3 948.6 0.0
10 14.06 З 2 н/о н/о +27.8 +17.0 52 +32 +32 душно 1015.4 948.2
11 14.06 СЗ 1 н/о н/о +28.6 +15.7 46 +32 +32 душно 1014.9 947.8
12 14.06 СЗ 1 20 км ясно +29.5 +17.5 48 +34 +54 опасность
солнечного
удара
1014.3 947.5 0.0
13 14.06 СЗ 1 н/о н/о +30.3 +17.5 46 +34 +34 очень
душно
1013.5 946.9
14 14.06 З 2 н/о н/о +30.7 +18.4 48 +36 +36 очень
душно
1012.9 946.5
15 14.06 СЗ 1 20 км ясно +31.3 +19.6 50 +37 +47 очень
душно
1011.9 945.7
16 14.06 З 2 н/о н/о +30.4 +20.1 54 +37 +37 очень
душно
1011.5 945.2
17 14.06 штиль 0 н/о н/о +29.0 +20.9 62 +36 +36 очень
душно
1011.7 945.1
18 14.06 штиль 0 20 км ясно +24.9 +18.9 69 +30 +30 душно 1012.4 944.8 +15.9 +31.3 0.0
19 14.06 В 1 н/о н/о +24.0 +14.0 54 +26 +26 жарко 1013.1 945.1
20 14.06 штиль 0 н/о н/о +23.3 +14.9 59 +27 +27 душно 1013.7 945.5
21 14.06 штиль 0 н/о н/о +20.2 +16.1 77 +23 +23 комфорт 1014.0 945.2
22 14.06 С 1 н/о н/о +19.1 +14.5 75 +22 +22 комфорт 1014.6 945.4
23 14.06 штиль 0 н/о н/о +17.2 +14.5 84 +17 +17 1014.7 945.1
00 15.06 штиль 0 н/о н/о +15.8 +13.8 88 +16 +16 1014.2 944.3
01 15.06 штиль 0 н/о н/о +16.2 +13.9 86 +16 +16 1013.5 943.7
02 15.06 ЮЗ 1 н/о н/о +20.0 +10.8 55 +23 +23 комфорт 1012.3 943.4
03 15.06 штиль 0 н/о н/о +18.6 +11.3 62 +19 +19 1012.6 943.4
04 15.06 штиль 0 н/о н/о +16.2 +12.4 78 +16 +16 1013.3 943.5
05 15.06 СЗ 1 20 км 6/0
[Ac trans]
+18.0 +13.8 76 +19 +21 1012.8 943.5
06 15.06 штиль 0 20 км 8/0 2000 м
[As trans]
+19.2 +15.0 77 +21 +24 комфорт 1012.5 943.5 +15.4 +28.0
07 15.06 штиль 0 н/о н/о +20.7 +15.2 71 +23 +23 комфорт 1012.4 943.8
08 15.06 СВ 1 н/о н/о +23.0 +16.4 66 +28 +28 душно 1012.1 944.0
09 15.06 штиль 0 20 км 9/0
[As trans]
+24.3 +17.9 67 +28 +38 душно 1011.5 943.8
10 15.06 штиль 0 н/о н/о +27.6 +15.6 48 +31 +31 душно 1010.5 943.5
11 15.06 Ю 1 н/о н/о +28.3 +10.0 32 +29 +29 жарко 1010.6 943.6
12 15.06 В 1 н/о н/о +27.7 +10.3 34 +28 +28 жарко 1010.6 943.5
13 15.06 В 1 н/о н/о +28.2 +9.8 32 +28 +28 жарко 1010.3 943.3
14 15.06 З 1 н/о н/о +29.5 +12.2 34 +30 +30 жарко 1009.7 943.1
15 15.06 З 2 н/о н/о +27.8 +14.6 44 +30 +30 жарко 1009.4 942.5
16 15.06 З 1 н/о н/о +27.6 +15.0 46 +30 +30 жарко 1009.2 942.3
17 15.06 В 1 н/о н/о +22.6 +18.1 76 +28 +28 душно 1011.1 943.1
18 15.06 СЗ 1 н/о н/о +20.7 +16.7 78 +25 +25 комфорт 1012.2 943.6 +19.0 +30.5
19 15.06 штиль 0 н/о н/о +20.3 +15.3 73 +23 +23 комфорт 1013.1 944.3
20 15.06 СЗ 1 н/о н/о +19.7 +13.0 65 +22 +22 комфорт 1014.4 945.3
21 15.06 В 1 н/о н/о +16.9 +13.8 82 +18 +18 1014.5 944.8
22 15.06 В 1 н/о н/о +15.1 +13.4 90 +16 +16 1014.9 944.8
23 15.06 штиль 0 н/о н/о +14.0 +12.9 93 +14 +14 1015.1 944.7
00 16.06 В 1 н/о н/о +13.5 +12.6 94 +14 +14 1015.9 945.3
01 16.06 В 1 н/о н/о +13.0 +12.3 96 +13 +13 1015.5 944.8
02 16.06 В 1 н/о н/о +12.7 +12.2 97 +13 +13 1016.2 945.4
03 16.06 штиль 0 н/о н/о +12.7 +12.2 97 +12 +12 1017.4 946.5
04 16.06 штиль 0 н/о н/о +14.0 +13.0 94 +14 +14 1017.6 947.0
05 16.06 штиль 0 н/о н/о +14.5 +13.6 94 +14 +14 1017.9 947.4 0.0
06 16.06 штиль 0 15 км 10/0 1500 м
[Ac As]
+16.8 +14.9 89 +17 +19 1017.4 947.5 +11.8 +22.7 0.0
07 16.06 З 2 н/о н/о +17.5 +13.1 75 +18 +18 1018.2 948.4
08 16.06 СЗ 1 н/о н/о +17.3 +12.9 75 +18 +18 1018.8 948.9
09 16.06 З 2 н/о н/о +17.1 +12.6 75 +17 +17 1019.6 949.6
10 16.06 СЗ 1 н/о н/о +18.0 +12.9 72 +19 +19 1019.6 949.8
11 16.06 З 2 н/о н/о +18.2 +12.5 69 +19 +19 1019.8 950.0
12 16.06 З 2 20 км 9/0 2000 м
[Ac As]
+18.5 +12.4 68 +20 +26 1019.8 950.1
13 16.06 З 1 н/о н/о +18.7 +12.5 67 +21 +21 комфорт 1019.3 949.7
14 16.06 З 1 н/о н/о +18.5 +12.9 70 +20 +20 1019.5 949.8
15 16.06 З 1 н/о н/о +19.3 +12.7 66 +22 +22 комфорт 1019.4 949.9
16 16.06 З 1 н/о н/о +19.9 +13.3 66 +23 +23 комфорт 1018.8 949.5
17 16.06 З 2 н/о н/о +18.9 +12.6 67 +20 +20 1019.8 950.2
18 16.06 СЗ 1 н/о н/о +18.6 +12.9 69 +20 +20 1020.0 950.3 +15.9 +19.9
19 16.06 СВ 1 н/о н/о +17.2 +13.7 80 +18 +18 1020.5 950.5
20 16.06 штиль 0 н/о н/о +16.6 +13.2 80 +17 +17 1021.0 950.8
21 16.06 штиль 0 н/о н/о +15.9 +13.6 86 +16 +16 1021.7 951.3
22 16.06 штиль 0 н/о н/о +15.4 +13.5 88 +15 +15 1022.1 951.5
23 16.06 штиль 0 н/о н/о +15.4 +13.5 88 +15 +15 1021.5 951.0
00 17.06 штиль 0 н/о н/о +15.0 +13.7 92 +15 +15 1021.4 950.8

 

Местоположение метеостанции Лунц (Австрия): широта 47.85 долгота 15.07 высота над уровнем моря 615 м.

В архиве по умолчанию представлена погода в Лунце за последнюю неделю. Архивные данные за месяц целиком и за предыдущие месяцы, начиная с января 2011 года, Вы можете получить, выбрав интересующий диапазон дат из раскрывающегося списка и нажав кнопку "Ввод!".


*Определитесь, кто Вы:
робот инопланетянин человек

Внимание! Время в таблицах - всемирное. Для получения местного времени необходимо прибавить поправку, которая равна 1 ч.

Смотрите также архив погоды в соседних городах и на ближайших метеорологических станциях:

Погода в Санкт-Себастьяне (Австрия) (18 км)
Погода в Вайдхофен-ан-дер-Ибсе (Австрия) (22 км)
Погода в Вайдхофен-ан-дер-Ибсе (Австрия) (25 км)
Погода в Амштеттене (Австрия) (31 км)
Погода в Афленц-Курорте (Австрия) (36 км)
Погода в Пребихле (Австрия) (38 км)
Погода в Лилиенфельде (Австрия) (43 км)
Погода в Капфенберг аэропорту (Австрия) (47 км)
Погода в Капфенберге (Австрия) (48 км)
Погода в Брукк-ан-дер-Муре (Австрия) (50 км)

Пояснения к столбцам:

Ветер - указаны скорость ветра в м/с - средняя за 10 мин, порывы в срок и между сроками (в фигурных скобках) и направление, откуда дует ветер: С - северный, СВ - северо-восточный, В - восточный, ЮВ - юго-восточный, Ю - южный, ЮЗ - юго-западный, З - западный, СЗ - северо-западный.
Видимость - горизонтальная дальность видимости в метрах или километрах. При видимости от 1 до 10 км при отсутствии осадков обычно наблюдается дымка, при ухудшении видимости до 1 км и менее - туман. В сухую погоду видимость может ухудшаться дымом, пылью или мглою.
Явления - указаны атмосферные явления, наблюдавшиеся в срок или в последний час перед сроком; фигурными скобками обозначены явления, наблюдавшиеся между сроками (за 1-3 часа до срока); квадратными скобками обозначены град или гололедные отложения с указанием их диаметра в мм.
Облачность - указаны через наклонную черту общая и нижняя облачность в баллах и высота нижней границы облаков в метрах; квадратными скобками обозначены формы облаков: Ci - перистые, Cs - перисто-слоистые, Cc - перисто-кучевые, Ac - высококучевые, As - высокослоистые, Sc - слоисто-кучевые, Ns - слоисто-дождевые, Cu - кучевые, Cb - кучево-дождевые. Подробнее классификацию облаков см. в Атласе облаков (PDF).
T - Температура воздуха - температура, измеренная на высоте 2 м над землей.
Td - Температура точки росы - температура, при понижении до которой содержащийся в воздухе водяной пар достигнет насыщения.
f - Относительная влажность воздуха - влажноcть воздуха, измеренная на высоте 2 м над землей.
Te - Эффективная температура - температура, которую ощущает одетый по сезону человек в тени. Характеристика душности погоды. При расчете учитывается влияние влажности воздуха и скорости ветра на теплоощущения человека.
Tes - Эффективная температура на солнце - температура, которую ощущает человек, с поправкой на солнечный нагрев. Характеристика знойности погоды. Зависит от высоты солнца над горизонтом, облачности и скорости ветра. Ночью, в пасмурную погоду, а также при ветре 12 м/с и более поправка равна нулю.
P - Атмосферное давление - приведенное к уровню моря атмосферное давление.
Po - Атмосферное давление - измеренное на уровне метеостанции атмосферное давление.
Tmin - Минимальная температура - минимум температуры воздуха на высоте 2 м над землей.
Tmax - Максимальная температура - максимум температуры воздуха на высоте 2 м над землей.
R - Количество осадков - Количество выпавших осадков за период времени, мм. При наведении курсора мыши на число - период времени, за который выпало указанное количество осадков.
R24 - Количество осадков - Количество выпавших осадков за 24 часа, мм.
S - Снежный покров - Высота снежного покрова, см. При наведении курсора мыши на число - состояние снежного покрова и степень покрытия местности в баллах.